Tracking 30995 objects as of 5-Jul-2025
HD Live streaming from Space Station
objects crossing your sky now

STARLINK-5671

Track STARLINK-5671 now!
10-day predictions
STARLINK-5671 is classified as:


NORAD ID: 55339
Int'l Code: 2023-013J
Perigee: 565.3 km
Apogee: 567.2 km
Inclination: 43.0 °
Period: 95.8 minutes
Semi major axis: 6937 km
RCS: Unknown
Launch date: January 26, 2023
Source: United States (US)
Launch site: AIR FORCE EASTERN TEST RANGE (AFETR)
Your satellite tracking list
Your tracking list is empty




NASA's NSSDC Master Catalog

Two Line Element Set (TLE):
1 55339U 23013J   25186.10254804  .00000101  00000-0  22555-4 0  9995
2 55339  43.0022 205.8426 0001358 285.4993  74.5699 15.02534498134898
Source of the keplerian elements: AFSPC